Total_Precipitation_Accumulation
0.05 0.12 0.31 0.58 0.77 0.94 0.85 0.70 0.63 0.58 0.54 0.55 0.60 0.71 0.83 0.82 0.70 0.63 0.60 0.61 0.66 0.75 0.79 0.75 0.70 0.62 0.57 0.51 0.42 0.33 0.26 0.19 0.14 0.12 0.08 0.05 0.04 0.03 0.02 0.02 0.01 0.02 0.01
0.05 0.13 0.27 0.36 0.42 0.57 0.70 0.71 0.64 0.65 0.74 0.91 1.06 1.25 1.34 1.25 1.12 1.04 1.03 1.05 1.03 0.98 0.89 0.83 0.74 0.65 0.54 0.42 0.35 0.30 0.25 0.20 0.15 0.12 0.09 0.04 0.02 0.02 0.01 0.01 0.01 0.01 0.00
0.05 0.08 0.14 0.22 0.31 0.48 0.68 0.72 0.69 0.80 1.00 1.20 1.48 1.67 1.63 1.51 1.49 1.44 1.41 1.32 1.19 1.09 0.98 0.86 0.76 0.66 0.56 0.44 0.34 0.28 0.22 0.17 0.12 0.09 0.07 0.05 0.03 0.02 0.01 0.01 0.01 0.00 0.00
0.04 0.06 0.09 0.18 0.34 0.54 0.68 0.73 0.76 0.92 1.17 1.37 1.56 1.68 1.69 1.68 1.70 1.50 1.35 1.20 1.06 0.98 0.89 0.78 0.67 0.56 0.44 0.33 0.24 0.17 0.13 0.10 0.07 0.05 0.04 0.04 0.03 0.03 0.02 0.01 0.00 0.00 0.00
0.04 0.06 0.10 0.19 0.37 0.55 0.67 0.74 0.81 1.01 1.22 1.38 1.48 1.62 1.74 1.70 1.51 1.22 1.03 0.88 0.78 0.71 0.59 0.47 0.37 0.31 0.24 0.16 0.10 0.07 0.05 0.04 0.03 0.02 0.02 0.02 0.02 0.03 0.05 0.03 0.01 0.00 0.00
0.04 0.07 0.12 0.19 0.31 0.41 0.54 0.62 0.72 0.95 1.16 1.31 1.37 1.41 1.43 1.28 1.03 0.84 0.71 0.59 0.52 0.46 0.38 0.30 0.22 0.17 0.14 0.09 0.06 0.05 0.04 0.04 0.04 0.04 0.03 0.03 0.03 0.03 0.04 0.05 0.03 0.01 0.00
0.05 0.08 0.14 0.20 0.29 0.35 0.44 0.55 0.68 0.83 1.00 1.09 1.08 1.00 0.86 0.73 0.64 0.58 0.51 0.41 0.33 0.27 0.20 0.13 0.08 0.07 0.06 0.05 0.04 0.04 0.04 0.03 0.04 0.04 0.04 0.04 0.04 0.05 0.07 0.09 0.07 0.05 0.01
0.07 0.11 0.18 0.25 0.30 0.36 0.47 0.59 0.70 0.81 0.89 0.83 0.73 0.60 0.51 0.43 0.40 0.33 0.24 0.18 0.13 0.11 0.07 0.04 0.03 0.02 0.02 0.02 0.03 0.03 0.03 0.04 0.05 0.05 0.07 0.08 0.07 0.08 0.10 0.14 0.17 0.14 0.07
0.12 0.19 0.26 0.30 0.33 0.37 0.44 0.51 0.56 0.59 0.56 0.45 0.36 0.31 0.26 0.21 0.17 0.13 0.09 0.07 0.06 0.04 0.03 0.03 0.03 0.03 0.04 0.04 0.05 0.06 0.06 0.08 0.09 0.09 0.09 0.10 0.08 0.09 0.09 0.11 0.17 0.23 0.20
0.19 0.26 0.31 0.31 0.30 0.31 0.35 0.34 0.31 0.28 0.24 0.19 0.16 0.14 0.13 0.11 0.09 0.07 0.06 0.06 0.05 0.04 0.04 0.05 0.05 0.05 0.06 0.07 0.08 0.09 0.10 0.11 0.11 0.11 0.10 0.11 0.10 0.11 0.12 0.14 0.16 0.22 0.29
0.27 0.35 0.34 0.28 0.24 0.21 0.19 0.18 0.15 0.13 0.11 0.10 0.09 0.08 0.07 0.05 0.04 0.04 0.05 0.05 0.05 0.05 0.06 0.06 0.06 0.07 0.07 0.08 0.10 0.10 0.10 0.10 0.09 0.09 0.10 0.10 0.11 0.12 0.12 0.15 0.20 0.24 0.31
0.33 0.36 0.33 0.25 0.19 0.17 0.15 0.13 0.13 0.12 0.10 0.09 0.07 0.06 0.04 0.04 0.04 0.04 0.05 0.05 0.06 0.07 0.07 0.08 0.09 0.08 0.07 0.08 0.10 0.10 0.09 0.09 0.09 0.09 0.10 0.09 0.09 0.11 0.12 0.15 0.18 0.21 0.26
0.43 0.39 0.33 0.23 0.17 0.15 0.14 0.14 0.13 0.11 0.08 0.06 0.04 0.04 0.03 0.04 0.05 0.05 0.06 0.07 0.08 0.08 0.09 0.09 0.09 0.08 0.08 0.09 0.10 0.09 0.08 0.08 0.08 0.09 0.11 0.10 0.11 0.13 0.14 0.18 0.20 0.22 0.25
0.40 0.30 0.23 0.18 0.15 0.14 0.14 0.12 0.11 0.09 0.06 0.05 0.04 0.04 0.05 0.06 0.08 0.08 0.09 0.09 0.09 0.10 0.10 0.08 0.08 0.08 0.09 0.07 0.06 0.05 0.05 0.06 0.06 0.07 0.10 0.12 0.14 0.18 0.20 0.21 0.24 0.29 0.34
0.33 0.28 0.23 0.18 0.16 0.14 0.13 0.13 0.12 0.09 0.07 0.06 0.06 0.07 0.08 0.09 0.10 0.11 0.12 0.12 0.11 0.09 0.08 0.07 0.07 0.08 0.07 0.03 0.02 0.02 0.02 0.04 0.05 0.07 0.10 0.10 0.14 0.19 0.23 0.25 0.31 0.40 0.46
0.31 0.29 0.24 0.20 0.18 0.18 0.18 0.16 0.13 0.11 0.09 0.10 0.11 0.11 0.10 0.11 0.12 0.12 0.12 0.11 0.09 0.08 0.06 0.05 0.05 0.04 0.03 0.01 0.01 0.00 0.01 0.04 0.07 0.11 0.10 0.07 0.07 0.10 0.15 0.23 0.30 0.40 0.47
0.34 0.30 0.24 0.21 0.21 0.22 0.21 0.20 0.18 0.17 0.16 0.15 0.14 0.13 0.12 0.11 0.11 0.10 0.10 0.09 0.07 0.05 0.04 0.03 0.03 0.03 0.02 0.00 0.00 0.00 0.01 0.05 0.10 0.13 0.10 0.07 0.05 0.09 0.14 0.18 0.22 0.27 0.38
0.28 0.24 0.22 0.23 0.26 0.28 0.28 0.26 0.23 0.19 0.16 0.15 0.14 0.12 0.10 0.09 0.08 0.07 0.06 0.04 0.03 0.03 0.03 0.03 0.02 0.03 0.02 0.00 0.00 0.00 0.02 0.05 0.08 0.09 0.09 0.10 0.11 0.13 0.15 0.16 0.22 0.32 0.40
0.22 0.23 0.26 0.31 0.35 0.34 0.29 0.22 0.18 0.14 0.13 0.12 0.10 0.08 0.06 0.05 0.03 0.03 0.03 0.03 0.03 0.03 0.02 0.02 0.02 0.03 0.03 0.01 0.00 0.00 0.02 0.03 0.04 0.05 0.07 0.10 0.14 0.14 0.20 0.27 0.38 0.54 0.68
0.18 0.26 0.32 0.34 0.33 0.29 0.20 0.16 0.14 0.12 0.10 0.08 0.06 0.04 0.02 0.01 0.01 0.02 0.03 0.03 0.03 0.02 0.02 0.02 0.02 0.03 0.04 0.01 0.00 0.00 0.02 0.02 0.02 0.04 0.07 0.12 0.18 0.19 0.30 0.39 0.54 0.74 0.86
0.25 0.29 0.31 0.29 0.23 0.17 0.13 0.12 0.10 0.08 0.05 0.03 0.01 0.01 0.01 0.01 0.01 0.02 0.02 0.03 0.02 0.02 0.02 0.02 0.03 0.04 0.04 0.02 0.00 0.00 0.02 0.03 0.05 0.08 0.13 0.18 0.25 0.25 0.37 0.54 0.68 0.90 0.98
0.31 0.31 0.27 0.21 0.14 0.09 0.07 0.07 0.06 0.03 0.01 0.01 0.01 0.01 0.01 0.00 0.01 0.01 0.02 0.02 0.02 0.01 0.01 0.02 0.02 0.03 0.04 0.03 0.01 0.00 0.01 0.03 0.07 0.16 0.24 0.28 0.31 0.34 0.51 0.65 0.83 1.08 1.15
0.28 0.22 0.17 0.12 0.08 0.04 0.03 0.04 0.03 0.01 0.01 0.01 0.01 0.01 0.01 0.01 0.01 0.01 0.01 0.01 0.01 0.01 0.01 0.02 0.02 0.03 0.03 0.03 0.01 0.01 0.01 0.03 0.08 0.20 0.36 0.39 0.36 0.51 0.73 0.92 1.07 1.20 1.12
0.16 0.11 0.07 0.05 0.03 0.02 0.01 0.01 0.01 0.01 0.01 0.01 0.01 0.01 0.01 0.01 0.01 0.01 0.01 0.01 0.02 0.02 0.02 0.03 0.04 0.04 0.04 0.04 0.03 0.03 0.04 0.06 0.09 0.17 0.32 0.45 0.49 0.66 0.90 1.07 1.14 1.15 1.06
0.06 0.04 0.03 0.03 0.02 0.01 0.01 0.01 0.01 0.01 0.01 0.01 0.01 0.01 0.01 0.01 0.01 0.01 0.01 0.01 0.02 0.01 0.02 0.05 0.06 0.07 0.06 0.05 0.05 0.08 0.09 0.10 0.14 0.18 0.24 0.32 0.45 0.64 0.83 0.94 0.98 0.95 0.90
0.03 0.02 0.02 0.01 0.01 0.00 0.01 0.01 0.01 0.01 0.01 0.01 0.01 0.01 0.01 0.01 0.01 0.01 0.02 0.01 0.00 0.01 0.01 0.03 0.05 0.06 0.05 0.04 0.03 0.06 0.09 0.13 0.18 0.21 0.29 0.42 0.55 0.70 0.82 0.88 0.86 0.81 0.75